DW3383 Weather Reports


time (UTC)temp
C
wind
direction
speed
KPH
gust
KPH
rain 1hr
cm
rain 24hr
cm
rain mn
cm
humidity
%
barometer
mb
20260903020805 11 285 1.6 4.8 0.00 0.25 0.00 70 1009.4
20260903010805 14 355 0.0 4.8 0.00 0.25 0.00 62 1008.2
20260903010305 14 316 1.6 4.8 0.00 0.25 0.00 60 1008.1
20260903000805 13 19 0.0 3.2 0.00 0.38 0.00 63 1007.8
20260903000306 13 347 1.6 4.8 0.00 0.38 0.00 62 1007.8
20260902230805 14 343 3.2 4.8 0.00 0.51 0.00 67 1007.4
20260902230305 14 24 0.0 8.0 0.00 0.51 0.00 59 1007.3
20260902220804 13 309 0.0 0.0 0.00 0.51 0.00 63 1007.2
20260902220305 12 307 0.0 3.2 0.00 0.51 0.00 65 1007.2
20260902210805 12 3 0.0 1.6 0.00 0.51 0.00 72 1006.9
20260902200305 11 32 0.0 8.0 0.00 0.51 0.00 74 1006.8
20260902190805 11 118 0.0 0.0 0.00 0.51 0.00 80 1007.0
20260902190305 10 118 1.6 9.7 0.00 0.51 0.00 78 1007.0
20260902180806 9 274 8.0 9.7 0.00 0.51 0.00 85 1007.3
20260902180305 9 296 4.8 9.7 0.00 0.51 0.00 83 1007.4
20260902170805 8 34 0.0 0.0 0.00 0.51 0.00 93 1007.4
20260902170306 8 34 0.0 8.0 0.00 0.51 0.00 88 1007.4
20260902160805 6 263 4.8 4.8 0.00 0.51 0.00 99 1007.4
20260902160304 6 268 3.2 8.0 0.00 0.51 0.00 99 1007.4
20260902150805 6 271 4.8 8.0 0.00 0.51 0.00 99 1007.4
20260902150306 6 259 4.8 8.0 0.00 0.51 0.00 99 1007.4
20260902140804 6 267 8.0 8.0 0.00 0.51 0.00 99 1007.3
20260902140305 6 273 8.0 8.0 0.00 0.51 0.00 98 1007.3
20260902130804 6 275 8.0 8.0 0.00 0.51 0.00 98 1007.2
20260902130305 6 275 8.0 8.0 0.00 0.51 0.00 99 1007.2
20260902120805 6 275 4.8 8.0 0.00 0.51 0.00 98 1007.0
20260902120305 6 275 4.8 8.0 0.00 0.51 0.00 98 1007.0
20260902110804 6 270 4.8 8.0 0.00 0.51 0.00 98 1006.9
20260902110305 6 272 4.8 8.0 0.00 0.51 0.00 98 1006.9
20260902100306 7 271 4.8 8.0 0.00 0.51 0.00 98 1006.8
20260902090805 7 269 3.2 4.8 0.00 0.51 0.00 98 1006.7
20260902090306 7 268 3.2 4.8 0.00 0.51 0.00 98 1006.7
20260902080805 7 258 3.2 3.2 0.00 0.51 0.00 98 1006.6
20260902080305 7 261 3.2 4.8 0.00 0.51 0.00 98 1006.7
20260902070813 7 252 3.2 3.2 0.25 0.51 0.00 98 1006.5
20260902070305 7 253 3.2 4.8 0.25 0.51 0.00 98 1006.5
20260902060306 7 249 3.2 4.8 0.00 0.25 0.25 98 1006.6
20260902050804 7 248 1.6 3.2 0.00 0.25 0.25 98 1006.4
20260902050304 7 258 3.2 3.2 0.00 0.25 0.25 98 1006.3
20260902040805 8 227 1.6 3.2 0.00 0.25 0.25 99 1006.1
20260902040305 8 307 0.0 4.8 0.00 0.25 0.25 98 1006.1
20260902030805 8 23 3.2 3.2 0.00 0.25 0.25 99 1005.8
20260902030304 8 20 3.2 4.8 0.00 0.25 0.25 98 1005.7